Погода в Поццалло

Италия     36°43′49″N   14°50′39″E
темп.,
°C
ветер,
м/с
пор.,
м/с
влажн.,
%
обл.,
%
осадки,
мм/ч
давл.,
гПа
погр.,
м
24 сентября, пт
пт2423:00+22вюв3376100 0.1 1021547
02:00+22юв337896 0.2 1020578
05:00+22юв2378100 0.1 1019534
08:00+22вюв337938 0.1 1020515
11:00+23юв437363 0.1 1021757
14:00+25ю447058 0.2 1020854
17:00+24ююз557772 0.4 1019770
20:00+24зюз347819 0.4 1020497
25 сентября, сб
сб2523:00+23зюз22853 0.0 1020150
02:00+22з128724 0.0 1020147
05:00+22з118755 0.0 1020116
08:00+23ююз227895 0.0 1020604
11:00+24ююз337595 0.0 1021665
14:00+26ююз436760 0.1 1021826
17:00+26ююз436811 0.0 1020699
20:00+23ююз23820 0.0 1021185
26 сентября, вс
вс2623:00+22ю128718 0.0 1021132
02:00+22юз118930 0.0 1021135
05:00+21з129015 0.0 1021121
08:00+22зсз228625 0.0 1022175
11:00+26ююз426530 0.0 1022655
14:00+27юз54605 0.0 1021695
17:00+26зюз456293 0.1 1019563
20:00+24зсз467694 0.1 1020347
27 сентября, пн
пн2723:00+23з4577100 0.0 1019240
02:00+23зсз467996 0.0 1019204
05:00+22зсз4579100 0.0 1018155
08:00+23зсз46775 0.0 1018238
11:00+28з77555 0.0 1018606
14:00+28з8105635 0.0 1017688
17:00+26з8116495 0.0 1016589
20:00+24зсз61288100 0.0 1016508
28 сентября, вт
вт2823:00+23зсз61190100 0.0 1016469
02:00+23зсз5787100 0.0 1015382
05:00+23св1284100 0.0 101464
08:00+23всв237834 0.0 1015178
11:00+27ююв32590 0.0 10161110
14:00+27ююв536360 0.1 1016992
17:00+25ююв327170 0.3 1015684
20:00+24юв11790 0.6 101687